Cidade da Polícia Heliport

BR-0845 · Estado do Rio, Brasil

História da METAR BR-0845 · Cidade da Polícia Heliport

Abaixo você vê METARs dos últimos dias. Selecione um ano para navegar pelos METARs mais antigos, a partir do ano 2007.

21 de abril de 2024

Hora Código Clima Temp. Visibilidade Tecto Vento METAR/SPECI
23:00
V
21 °C 10 km+ - 110° 110° 3 kt METAR SBGL 220200Z 11003KT CAVOK 21/17 Q1016
22:00
V
22 °C 10 km+ - 110° 110° 3 kt METAR SBGL 220100Z 11003KT CAVOK 22/17 Q1016
21:00
V
22 °C 10 km+ - 110° 110° 3 kt METAR SBGL 220000Z 11003KT CAVOK 22/17 Q1016
20:00
V
22 °C 10 km+ - 120° 120° 4 kt METAR SBGL 212300Z 12004KT CAVOK 22/17 Q1016
19:00
V
23 °C 10 km+ - 140° 140° 6 kt METAR SBGL 212200Z 14006KT CAVOK 23/17 Q1016
18:00
V
24 °C 10 km+ - 130° 130° 8 kt METAR SBGL 212100Z 13008KT 100V180 CAVOK 24/17 Q1015
17:00
V
26 °C 10 km+ - 140° 140° 12 kt METAR SBGL 212000Z 14012KT CAVOK 26/17 Q1015
16:00
V
27 °C 10 km+ - 140° 140° 10 kt METAR SBGL 211900Z 14010KT 9999 FEW030 27/16 Q1015
15:00
V
27 °C 10 km+ - 130° 130° 10 kt METAR SBGL 211800Z 13010KT 9999 FEW030 27/17 Q1015
14:00
V
28 °C 10 km+ - 120° 120° 9 kt METAR SBGL 211700Z 12009KT 9999 FEW030 28/18 Q1015
13:00
V
28 °C 10 km+ - 130° 130° 8 kt METAR SBGL 211600Z 13008KT 9999 FEW025 28/16 Q1016
12:00
V
28 °C 10 km+ - 080° 080° 5 kt METAR SBGL 211500Z 08005KT 9999 FEW025 28/18 Q1017
11:00
V
27 °C 10 km+ - 030° 030° 5 kt METAR SBGL 211400Z 03005KT CAVOK 27/17 Q1018
10:00
V
24 °C 10 km+ - 020° 020° 5 kt METAR SBGL 211300Z 02005KT CAVOK 24/19 Q1019
09:00
V
24 °C 10 km+ - 080° 080° 5 kt METAR SBGL 211200Z 08005KT CAVOK 24/18 Q1019
08:00
V
22 °C 10 km+ - 040° 040° 2 kt METAR SBGL 211100Z 04002KT 9999 FEW020 22/19 Q1019
07:00
V
20 °C 10 km+ - 340° 340° 4 kt METAR SBGL 211000Z 34004KT 9999 FEW020 20/18 Q1018
06:00
V
19 °C 10 km+ - 310° 310° 1 kt METAR SBGL 210900Z 31001KT 9999 FEW020 SCT040 19/17 Q1018
05:00
V
20 °C 10 km+ - 070° 070° 2 kt METAR SBGL 210800Z 07002KT 9999 FEW020 20/16 Q1018
04:00
V
19 °C 10 km+ - 040° 040° 5 kt METAR SBGL 210700Z 04005KT 9999 FEW025 19/16 Q1018
03:00
V
19 °C 10 km+ - 130° 130° 4 kt METAR SBGL 210600Z 13004KT 9999 FEW025 19/16 Q1018
02:00
V
19 °C 10 km+ - 120° 120° 3 kt METAR SBGL 210500Z 12003KT 9999 FEW020 19/16 Q1018
01:00
V
20 °C 10 km+ - 130° 130° 5 kt METAR SBGL 210400Z 13005KT CAVOK 20/16 Q1019
00:00
V
21 °C 10 km+ - 120° 120° 5 kt METAR SBGL 210300Z 12005KT CAVOK 21/16 Q1019

20 de abril de 2024

Hora Código Clima Temp. Visibilidade Tecto Vento METAR/SPECI
23:00
V
21 °C 10 km+ - 120° 120° 5 kt METAR SBGL 210200Z 12005KT CAVOK 21/16 Q1019
22:00
V
22 °C 10 km+ - 110° 110° 4 kt METAR SBGL 210100Z 11004KT CAVOK 22/17 Q1020
21:00
V
22 °C 10 km+ - 130° 130° 4 kt METAR SBGL 210000Z 13004KT CAVOK 22/18 Q1020
20:00
V
23 °C 10 km+ - 130° 130° 4 kt METAR SBGL 202300Z 13004KT CAVOK 23/18 Q1019
19:00
V
23 °C 10 km+ 5.000 ft 140° 140° 5 kt METAR SBGL 202200Z 14005KT 9999 FEW030 BKN050 23/17 Q1019
18:00
V
24 °C 10 km+ 5.000 ft 140° 140° 9 kt METAR SBGL 202100Z 14009KT 9999 FEW030 BKN050 24/17 Q1018
17:00
V
24 °C 10 km+ - 140° 140° 10 kt METAR SBGL 202000Z 14010KT 9999 FEW030 SCT050 24/16 Q1018
16:00
V
25 °C 10 km+ - 140° 140° 10 kt METAR SBGL 201900Z 14010KT 9999 FEW030 25/16 Q1018
15:00
V
26 °C 10 km+ - 140° 140° 12 kt METAR SBGL 201800Z 14012KT 9999 FEW020 26/16 Q1018
14:00
V
26 °C 10 km+ - 130° 130° 11 kt METAR SBGL 201700Z 13011KT 9999 FEW025 26/17 Q1018
13:00
V
26 °C 10 km+ - 140° 140° 9 kt METAR SBGL 201600Z 14009KT 9999 FEW025 26/17 Q1019
12:00
V
26 °C 10 km+ - 140° 140° 5 kt METAR SBGL 201500Z 14005KT 9999 FEW025 26/17 Q1020
11:00
V
26 °C 10 km+ - Var Var 3 kt METAR SBGL 201400Z VRB03KT 9999 FEW025 26/17 Q1021
10:00
V
24 °C 10 km+ - 350° 350° 6 kt METAR SBGL 201300Z 35006KT 9999 FEW020 24/18 Q1021
09:00
V
23 °C 10 km+ - 020° 020° 4 kt METAR SBGL 201200Z 02004KT CAVOK 23/17 Q1021
08:00
V
22 °C 10 km+ - 360° 360° 5 kt METAR SBGL 201100Z 36005KT 9999 FEW020 22/17 Q1021
07:00
V
19 °C 10 km+ - 050° 050° 2 kt METAR SBGL 201000Z 05002KT 9999 FEW040 19/17 Q1020
06:00
V
20 °C 10 km+ - 020° 020° 3 kt METAR SBGL 200900Z 02003KT 9999 FEW040 20/17 Q1020
05:00
V
20 °C 10 km+ - 020° 020° 3 kt METAR SBGL 200800Z 02003KT 9999 FEW030 20/17 Q1020
04:00
V
20 °C 10 km+ - 020° 020° 3 kt METAR SBGL 200700Z 02003KT 9999 FEW030 20/17 Q1020
03:00
V
21 °C 10 km+ - 010° 010° 2 kt METAR SBGL 200600Z 01002KT 9999 FEW030 21/17 Q1020
02:00
V
21 °C 10 km+ - 030° 030° 2 kt METAR SBGL 200500Z 03002KT 9999 FEW036 21/16 Q1020
01:00
V
21 °C 10 km+ - 030° 030° 2 kt METAR SBGL 200400Z 03002KT 9999 FEW045 21/16 Q1020
00:00
V
22 °C 10 km+ 7.000 ft 090° 090° 3 kt METAR SBGL 200300Z 09003KT 9999 SCT040 OVC070 22/17 Q1020

19 de abril de 2024

Hora Código Clima Temp. Visibilidade Tecto Vento METAR/SPECI
23:00
V
22 °C 10 km+ 7.000 ft 100° 100° 3 kt METAR SBGL 200200Z 10003KT 9999 FEW008 OVC070 22/17 Q1021
22:00
V
22 °C 10 km+ 6.000 ft 120° 120° 3 kt METAR SBGL 200100Z 12003KT 9999 FEW008 OVC060 22/17 Q1020
21:00
V
22 °C 10 km+ 5.500 ft 140° 140° 2 kt METAR SBGL 200000Z 14002KT 9999 FEW008 OVC055 22/17 Q1020
20:00
V
23 °C 10 km+ 5.000 ft 130° 130° 4 kt METAR SBGL 192300Z 13004KT 9999 OVC050 23/17 Q1020
19:00
V
23 °C 10 km+ 4.000 ft 140° 140° 4 kt METAR SBGL 192200Z 14004KT 9999 BKN040 23/17 Q1020
18:00
V
24 °C 10 km+ 4.000 ft 120° 120° 4 kt METAR SBGL 192100Z 12004KT 9999 OVC040 24/16 Q1019
17:00
V
23 °C 10 km+ 4.000 ft 110° 110° 4 kt METAR SBGL 192000Z 11004KT 9999 OVC040 23/16 Q1018
16:00
V
24 °C 10 km+ 4.000 ft 100° 100° 4 kt METAR SBGL 191900Z 10004KT 9999 OVC040 24/16 Q1018
15:00
V
24 °C 10 km+ 4.000 ft 130° 130° 3 kt METAR SBGL 191800Z 13003KT 9999 FEW025 OVC040 24/14 Q1018
14:00
V
25 °C 10 km+ 5.000 ft 210° 210° 6 kt METAR SBGL 191700Z 21006KT 9999 FEW025 OVC050 25/13 Q1018
13:00
V
24 °C 10 km+ 5.000 ft 120° 120° 5 kt METAR SBGL 191600Z 12005KT 9999 FEW025 OVC050 24/15 Q1018
12:00
V
25 °C 10 km+ 5.000 ft 040° 040° 5 kt METAR SBGL 191500Z 04005KT 9999 FEW025 OVC050 25/18 Q1018
11:00
V
25 °C 10 km+ 5.000 ft 030° 030° 5 kt METAR SBGL 191400Z 03005KT 9999 SCT025 BKN050 25/17 Q1019
10:00
V
25 °C 10 km+ - 360° 360° 6 kt METAR SBGL 191300Z 36006KT 9999 FEW025 25/18 Q1019
09:00
V
23 °C 10 km+ - 350° 350° 6 kt METAR SBGL 191200Z 35006KT 9999 FEW015 23/18 Q1019
08:00
V
22 °C 10 km+ 5.000 ft 330° 330° 7 kt METAR SBGL 191100Z 33007KT 9999 FEW010 BKN050 22/19 Q1019
07:00
V
22 °C 8 km 4.000 ft 320° 320° 3 kt METAR SBGL 191000Z 32003KT 8000 SCT018 OVC040 22/19 Q1019
06:00
M
21 °C 8 km 1.800 ft 320° 320° 4 kt METAR SBGL 190900Z 32004KT 8000 BKN018 OVC040 21/18 Q1018
05:00
V
22 °C 8 km 4.000 ft 260° 260° 4 kt METAR SBGL 190800Z 26004KT 8000 SCT020 BKN040 22/18 Q1017
04:00
V
22 °C 8 km 4.000 ft 210° 210° 6 kt METAR SBGL 190700Z 21006KT 8000 SCT020 BKN040 22/18 Q1017
03:00
V
22 °C 8 km 4.000 ft 240° 240° 4 kt METAR SBGL 190600Z 24004KT 8000 SCT020 BKN040 22/18 Q1017
Relatar uma mudança